This is the latest recevied weather packets stored in our database for station/object KE0LFX. If no packets are shown the sender has not sent any weather packets the latest 10 day(s).
| Time | Temp. | Humidity | Pressure | Rain* | Wind** | Luminosity | Snow |
|---|---|---|---|---|---|---|---|
| 1777527329 | 7.78° C | 58% | 1022 hPa | 0 mm | - | 0 W/m² | - |
| 1777527020 | 7.78° C | 60% | 1022.1 hPa | 0 mm | - | 0 W/m² | - |
| 1777526715 | 8.33° C | 58% | 1022 hPa | 0 mm | - | 0 W/m² | - |
| 1777526410 | 8.33° C | 56% | 1022 hPa | 0 mm | - | 0 W/m² | - |
| 1777526106 | 7.78° C | 56% | 1021.9 hPa | 0 mm | - | 0 W/m² | - |
| 1777525803 | 7.78° C | 59% | 1021.9 hPa | 0 mm | - | 0 W/m² | - |
| 1777525500 | 7.78° C | 59% | 1022 hPa | 0 mm | - | 0 W/m² | - |
| 1777525196 | 7.78° C | 58% | 1022 hPa | 0 mm | - | 0 W/m² | - |
| 1777524892 | 7.22° C | 60% | 1021.9 hPa | 0 mm | - | 0 W/m² | - |
| 1777524590 | 7.22° C | 59% | 1021.9 hPa | 0 mm | - | 0 W/m² | - |
| 1777524288 | 7.22° C | 57% | 1021.9 hPa | 0 mm | - | 0 W/m² | - |
| 1777523984 | 7.78° C | 59% | 1021.9 hPa | 0 mm | - | 0 W/m² | - |
| 1777523680 | 8.33° C | 58% | 1021.8 hPa | 0 mm | - | 0 W/m² | - |
| 1777523377 | 7.78° C | 57% | 1021.9 hPa | 0 mm | - | 0 W/m² | - |
| 1777523073 | 7.78° C | 58% | 1022 hPa | 0 mm | - | 0 W/m² | - |
| 1777522770 | 8.33° C | 59% | 1021.9 hPa | 0 mm | - | 0 W/m² | - |
| 1777522466 | 8.89° C | 54% | 1022 hPa | 0 mm | - | 0 W/m² | - |
| 1777522164 | 8.89° C | 53% | 1021.8 hPa | 0 mm | - | 0 W/m² | - |
| 1777521860 | 8.89° C | 53% | 1022.1 hPa | 0 mm | - | 0 W/m² | - |
| 1777521556 | 8.89° C | 54% | 1022 hPa | 0 mm | - | 0 W/m² | - |
| 1777521254 | 9.44° C | 53% | 1022.1 hPa | 0 mm | - | 0 W/m² | - |
| 1777520950 | 9.44° C | 52% | 1022 hPa | 0 mm | - | 0 W/m² | - |
| 1777520648 | 9.44° C | 51% | 1021.9 hPa | 0 mm | - | 0 W/m² | - |
| 1777520344 | 9.44° C | 51% | 1022.1 hPa | 0 mm | - | 0 W/m² | - |
| 1777520041 | 9.44° C | 52% | 1022.1 hPa | 0 mm | - | 0 W/m² | - |
* Rain latest hour (hover to see other rain measurements)
** Current wind speed in m/s (hover to see current wind gust speed)